RH
34 34 35 37 34 28 28 31 32 32 31 26 19 11 8 9 8 8 8 6 6 8 11 12 12 14 14 14 14 13 14 14 13 13 12 10 9 9 10 13 18 20 19 17 13 11 11 10 7 7 16 24 24 23 21 21 20 17 26 29 25 26 24 26 22 13 14 13 11 11 8 10 9 8 19 40 60 76 79 86 91 80 77 86 90 98 101 100
33 35 35 37 36 31 32 38 41 41 41 40 35 23 11 7 9 9 8 9 7 7 10 12 13 14 14 14 14 13 13 12 11 14 16 15 12 9 10 13 15 17 18 18 16 11 10 10 11 14 22 25 22 22 19 18 17 18 28 28 24 26 22 19 16 12 12 11 11 10 9 8 8 7 6 27 60 83 93 98 99 95 96 96 96 101 101 100
27 35 36 36 37 35 37 42 43 42 42 43 44 39 24 9 7 9 8 9 9 8 8 10 13 13 14 13 12 13 11 13 19 22 24 22 17 11 10 14 14 16 16 17 16 12 11 15 19 21 23 23 22 21 18 16 15 16 21 22 22 24 21 15 12 12 10 10 11 9 9 8 7 8 7 27 57 80 99 100 96 102 101 98 101 100 99 101
20 29 36 37 37 38 40 44 43 41 39 37 40 46 42 22 8 8 8 9 10 10 7 9 11 11 13 11 12 12 11 24 32 27 27 27 25 16 11 14 16 18 17 16 17 13 11 18 24 22 20 21 21 20 19 16 14 14 16 21 21 18 16 12 10 10 10 10 10 9 9 9 7 6 11 29 40 51 81 88 78 90 101 100 101 100 100 101
14 22 31 36 37 38 40 44 44 41 37 35 35 40 48 39 18 8 8 8 10 11 9 8 8 10 11 10 11 10 17 37 37 28 28 28 30 24 13 13 15 18 20 18 19 16 12 19 24 20 20 21 20 20 19 16 14 14 15 17 15 13 13 11 9 9 10 9 9 10 9 7 6 7 13 20 17 23 51 67 58 64 82 90 96 100 101 100
11 15 23 31 35 37 38 41 43 41 37 34 33 35 43 45 29 13 8 9 10 12 12 9 8 9 9 10 13 13 26 40 32 27 30 29 33 29 16 13 17 20 21 20 20 19 14 18 21 18 21 22 22 21 18 15 14 16 17 13 11 12 12 10 10 9 9 9 9 9 7 8 5 9 29 38 28 25 38 52 58 66 77 86 94 98 99 100
10 11 15 22 28 34 37 39 40 40 38 34 32 34 38 42 35 18 11 11 11 13 13 11 9 9 10 11 15 21 30 31 26 30 32 31 33 29 20 14 17 20 19 18 19 19 15 16 18 19 23 23 21 19 17 14 12 16 17 13 11 10 11 10 9 8 9 9 9 8 6 9 4 8 47 75 65 53 54 56 70 90 95 96 98 95 93 94
8 9 11 14 19 27 33 37 38 37 37 34 31 31 36 40 38 28 20 14 12 15 13 12 12 11 12 13 21 31 31 25 24 29 29 28 28 25 21 15 14 17 14 15 16 16 13 15 18 22 26 23 21 17 14 13 12 14 14 12 11 9 9 8 8 8 9 9 8 9 8 6 10 28 70 98 90 77 71 68 83 100 100 100 98 92 89 89
6 8 10 11 13 17 25 33 37 37 36 34 31 30 34 36 38 37 31 21 14 14 13 14 13 12 13 15 30 36 27 25 24 23 25 23 21 21 19 15 13 13 12 13 13 12 13 15 18 23 24 20 17 14 11 12 13 12 11 10 9 9 9 7 8 8 7 10 7 8 10 5 17 54 87 100 99 89 84 87 96 101 100 100 95 88 87 85
5 6 8 11 11 12 16 24 31 35 35 34 31 29 31 33 37 38 37 32 21 14 13 15 13 14 15 16 34 37 25 27 24 20 24 20 17 17 16 15 12 10 12 12 11 13 15 18 21 22 24 21 16 13 10 10 12 11 11 11 10 11 9 8 9 7 8 8 7 8 9 8 18 58 92 98 101 96 93 100 99 100 101 94 86 85 85 78
6 6 7 9 11 11 12 16 23 30 33 34 31 28 28 29 33 36 39 38 30 21 16 14 14 15 16 18 33 37 25 26 26 22 22 19 14 11 12 14 12 10 10 11 11 14 17 20 23 23 24 21 15 13 12 11 11 11 13 13 13 13 10 10 9 8 10 6 8 8 7 10 12 50 95 100 100 96 93 102 99 101 100 86 81 84 84 80
5 5 7 9 11 12 11 12 16 22 28 31 31 28 27 27 30 33 36 39 38 33 24 18 16 15 17 21 26 26 23 26 27 25 23 17 12 9 11 12 11 11 10 11 13 16 20 22 21 22 22 20 19 16 13 12 12 12 13 15 16 14 10 10 9 8 9 7 8 6 9 13 5 40 94 100 99 100 96 101 100 100 98 89 88 88 86 85
7 5 6 9 11 12 12 12 12 16 21 27 30 28 26 25 25 27 33 38 38 38 35 28 23 20 24 26 19 17 22 26 27 28 24 15 10 9 10 11 11 11 9 12 17 19 20 20 20 22 21 21 21 16 13 12 11 13 13 14 16 17 15 10 9 9 7 9 7 5 16 18 19 58 98 100 99 101 99 101 100 100 101 97 97 92 88 86
10 6 6 7 11 12 12 12 11 12 15 22 27 27 26 25 24 23 28 35 36 39 38 35 32 32 37 28 14 18 22 22 26 27 23 16 14 12 11 12 11 10 12 15 19 20 19 20 20 21 20 20 17 11 15 16 15 16 14 20 22 17 20 14 10 12 8 10 6 8 15 15 46 90 101 99 100 100 100 101 100 100 100 100 100 94 87 86
13 10 7 6 10 12 12 12 11 11 12 16 20 23 25 24 24 21 25 33 35 38 38 39 37 41 50 33 13 20 23 20 24 23 22 19 17 18 17 16 15 14 16 18 19 19 19 20 21 21 19 16 14 17 24 25 29 27 15 31 39 21 20 18 12 14 9 9 7 9 13 23 71 104 97 100 101 98 100 99 101 101 100 101 100 95 88 85
14 13 10 7 9 12 13 12 12 12 10 13 14 19 23 23 23 21 25 32 35 38 39 42 39 42 55 40 19 23 24 23 23 21 22 20 17 20 20 20 20 19 19 19 19 20 21 21 20 18 14 11 19 31 35 36 46 47 27 29 39 25 21 19 13 14 10 9 9 9 13 26 71 99 96 102 101 99 102 100 100 100 100 101 100 98 92 86
14 14 13 10 8 11 14 13 13 13 13 14 13 14 17 19 21 22 30 38 41 43 42 45 47 46 44 29 21 25 25 25 23 22 22 18 17 17 20 21 19 19 20 19 18 20 20 17 16 16 22 28 34 37 35 35 43 52 47 37 37 30 23 21 18 15 11 10 9 10 13 14 47 88 97 98 100 100 101 100 101 101 100 101 100 98 93 86
13 13 14 12 9 9 13 16 15 15 16 16 16 18 20 23 28 37 51 59 56 49 47 51 50 44 31 17 21 25 24 26 24 23 19 16 17 16 20 20 18 20 20 17 16 18 15 13 19 23 32 39 37 37 39 43 40 36 40 38 38 38 28 23 23 16 13 14 11 12 14 13 37 81 95 93 100 101 100 100 98 100 101 100 101 98 89 82
12 13 13 13 13 8 11 16 16 18 20 22 24 28 30 34 43 55 65 67 59 47 42 44 39 32 25 19 22 23 22 25 25 23 18 17 17 17 20 17 19 19 14 18 17 14 14 14 22 26 31 34 30 34 35 39 39 27 28 32 35 38 30 25 22 17 17 15 15 14 12 21 48 79 91 90 96 98 99 101 98 100 102 99 101 98 88 80
12 13 12 13 14 11 11 16 19 22 25 29 32 33 33 38 51 64 64 58 49 40 36 37 34 30 28 23 22 24 24 25 24 21 16 16 16 17 18 16 19 17 15 26 24 16 16 18 27 29 33 38 37 38 31 28 33 26 27 34 35 35 29 22 18 18 20 15 16 20 15 31 65 84 88 86 88 95 98 100 101 100 101 100 101 99 90 83
11 11 12 12 13 13 12 13 19 24 28 32 32 30 30 32 44 53 52 45 39 38 38 36 35 33 30 25 25 28 29 27 25 20 16 16 17 16 17 18 19 21 25 29 24 20 18 23 32 32 34 38 42 46 37 31 34 31 33 35 32 34 28 19 20 23 26 22 20 26 20 28 60 76 80 79 80 91 98 99 101 100 101 101 100 98 92 86
10 10 12 11 12 14 13 13 14 21 28 29 27 28 31 34 40 42 43 45 39 37 38 36 36 36 28 22 26 30 33 34 27 21 19 15 17 17 16 20 21 27 33 28 23 23 26 32 32 32 37 34 38 51 48 41 40 36 37 34 29 32 26 24 34 34 32 30 25 27 21 24 49 60 65 73 73 82 93 96 99 99 100 100 97 96 92 86
10 11 10 10 12 11 13 15 11 17 22 22 26 30 34 39 43 42 44 48 44 37 35 35 35 33 25 21 23 28 34 37 29 23 21 16 17 17 15 19 21 25 29 28 30 28 31 38 33 35 41 32 30 44 46 38 38 40 31 23 27 30 23 24 37 39 38 37 31 31 31 37 49 44 44 57 60 69 86 92 95 96 95 94 92 88 84 80
10 10 10 10 11 10 13 15 12 13 13 18 30 33 37 41 42 45 46 47 49 42 34 33 34 29 22 19 21 27 31 30 28 23 19 18 16 15 15 19 19 21 22 28 37 32 28 31 29 35 44 36 28 34 38 28 35 56 44 26 30 31 24 23 33 45 51 48 42 44 42 40 44 36 34 44 52 66 82 88 89 91 91 89 88 85 77 72
10 9 10 9 9 10 11 12 13 13 11 22 34 31 35 39 36 40 46 54 60 51 36 34 37 30 20 21 23 25 27 26 25 21 18 17 15 15 16 14 16 22 23 26 34 32 25 22 20 25 36 39 33 34 42 33 33 51 50 40 35 29 28 29 39 52 52 41 37 41 36 36 48 46 33 37 58 75 79 82 85 87 88 86 85 85 78 74
11 10 10 9 9 10 10 12 17 19 17 23 29 27 33 41 38 37 54 78 77 56 41 34 34 29 20 23 23 21 27 26 20 20 20 17 14 15 16 15 17 23 25 25 30 32 27 23 21 23 31 41 40 36 41 41 34 34 42 47 40 32 30 30 38 44 42 37 38 45 43 45 55 47 30 37 66 81 76 76 81 81 84 83 80 81 77 75
13 11 10 10 9 9 10 11 14 16 16 20 23 20 26 35 32 34 60 81 68 46 39 32 26 24 20 20 20 23 31 27 19 19 19 17 16 14 17 21 17 16 22 25 28 33 29 24 29 30 31 40 42 39 42 43 32 30 44 47 37 31 27 34 39 36 41 40 41 61 56 41 48 47 36 44 63 77 77 74 75 75 77 79 78 77 73 69
13 11 12 10 9 10 10 10 10 18 32 36 26 18 24 28 24 38 60 54 36 30 29 25 22 19 18 20 20 23 24 22 21 21 18 18 16 13 17 21 19 19 23 22 29 41 35 23 29 33 31 34 36 40 45 35 25 34 48 42 31 29 33 48 46 39 53 40 31 64 57 30 52 65 50 43 46 57 65 67 69 69 69 72 76 75 71 68
12 12 13 10 10 10 9 10 9 24 53 52 31 25 27 22 22 46 60 39 25 28 22 21 25 19 18 21 21 20 19 17 19 20 18 17 15 15 17 17 19 20 18 20 30 39 31 18 25 31 29 31 32 37 40 29 23 34 41 35 32 40 50 60 52 46 60 46 32 61 55 30 55 76 61 40 28 34 48 54 56 59 63 66 71 74 72 68
11 12 12 10 12 9 9 11 6 27 58 52 37 33 24 28 45 59 59 41 31 28 19 21 24 19 18 20 20 21 20 18 16 16 16 17 15 14 14 14 18 22 30 37 33 31 27 18 24 25 21 27 27 28 31 26 22 27 34 31 27 43 58 70 74 58 50 49 47 63 61 39 48 68 65 43 25 29 42 45 42 47 58 62 65 71 70 65
11 12 11 11 11 9 11 9 8 36 58 50 43 32 19 41 69 72 57 41 37 33 23 22 23 19 19 21 20 20 20 19 17 17 19 19 17 16 16 17 20 28 43 45 34 36 32 19 22 21 16 20 17 17 22 22 24 28 39 37 27 41 53 61 73 56 45 56 59 69 64 39 41 54 52 45 41 42 43 41 40 43 55 62 65 68 67 64
11 11 10 12 11 11 11 6 16 43 49 45 43 31 32 49 61 71 63 41 41 42 30 26 25 21 20 22 23 21 21 22 19 19 22 22 23 23 20 25 30 29 38 44 38 38 35 28 28 20 15 16 13 19 19 19 30 30 38 46 39 43 45 50 61 54 54 57 52 66 58 36 49 54 41 44 46 46 47 42 41 48 56 60 62 65 65 65
11 11 9 11 10 10 10 5 15 28 31 40 39 36 57 63 52 66 65 41 36 36 30 30 27 23 23 24 26 23 21 24 23 20 22 23 27 26 19 28 35 26 35 49 40 30 32 39 34 20 17 15 14 24 21 20 27 21 29 43 44 47 45 51 64 57 55 52 50 63 51 39 55 50 41 49 47 50 55 48 46 53 60 63 64 66 66 67
11 11 8 10 10 10 10 7 9 12 20 39 45 48 63 61 56 66 64 51 41 30 29 30 25 25 26 26 27 23 22 26 24 21 22 23 28 32 26 25 27 27 36 43 38 34 35 39 36 24 20 17 15 21 25 29 28 22 29 31 35 52 52 49 54 49 50 54 53 49 41 47 52 38 44 53 52 63 66 60 60 60 63 66 65 67 66 65
10 10 9 9 8 9 11 9 8 8 19 44 62 68 62 53 63 71 66 60 44 30 29 26 22 28 30 30 27 23 24 27 24 22 26 27 31 40 35 24 25 30 34 37 41 38 30 35 42 30 19 16 14 15 20 23 23 25 30 24 25 41 48 47 48 57 65 56 49 43 43 61 56 37 47 54 56 69 70 67 69 66 66 66 66 69 69 66
9 9 8 8 9 12 9 9 9 6 24 54 68 73 68 58 59 58 50 43 32 28 31 28 28 32 35 36 34 30 26 26 26 25 27 27 29 36 33 26 27 24 26 41 51 40 28 35 39 27 18 17 14 14 14 14 21 28 24 24 30 31 43 53 47 63 72 52 52 52 42 59 63 43 45 51 58 68 70 72 73 68 64 62 64 65 61 62
9 8 9 17 28 26 11 9 10 5 27 58 67 76 79 63 52 48 39 30 26 27 29 34 39 36 37 43 46 41 32 31 31 27 33 35 32 38 33 25 25 19 19 31 39 40 39 39 36 25 17 16 13 14 15 13 20 27 21 26 33 28 42 59 54 59 59 47 59 58 40 53 65 58 52 46 54 70 75 77 77 72 67 67 70 65 58 60
16 12 14 33 48 36 14 10 9 11 38 67 79 91 85 59 44 42 35 28 27 26 26 35 41 36 36 43 49 45 43 53 45 30 34 35 34 43 35 25 23 18 19 22 22 35 40 34 37 32 21 19 21 22 25 22 16 19 22 23 28 34 41 46 49 54 50 49 57 53 51 57 56 64 61 42 50 72 74 74 78 78 77 76 72 63 62 61
30 17 20 44 49 28 15 12 7 20 53 80 92 91 76 59 47 39 34 31 27 27 32 38 35 34 38 42 46 43 47 63 53 32 31 31 37 44 32 25 24 18 23 22 20 41 49 35 34 35 24 21 29 33 34 31 23 20 26 26 31 49 52 40 44 51 49 55 57 50 55 59 57 66 61 45 57 71 69 73 79 77 78 77 68 62 64 61
38 25 33 53 45 23 18 16 19 41 66 83 91 83 66 56 46 36 33 31 26 27 36 38 29 31 35 35 39 39 41 52 46 34 34 34 39 39 26 23 23 20 27 27 32 53 50 31 34 44 36 26 31 32 26 27 26 21 28 35 34 39 41 35 39 47 50 59 67 60 55 61 71 73 61 57 65 68 70 79 81 76 74 75 72 69 70 68
46 41 48 60 52 39 33 33 48 71 83 84 82 74 61 51 47 43 34 30 30 27 29 29 26 30 32 26 31 35 37 44 41 36 36 33 35 35 25 22 21 21 30 36 41 47 39 38 54 57 41 30 30 28 21 20 21 21 27 34 39 40 38 37 38 47 58 64 67 63 57 62 71 68 65 70 69 66 72 78 79 75 70 72 74 72 74 74
53 54 57 66 66 55 50 59 71 78 82 82 71 59 53 46 46 43 32 29 30 26 24 24 24 28 29 27 30 32 35 39 37 37 36 33 38 38 26 21 21 24 35 39 34 39 53 61 58 46 36 32 26 22 24 21 20 29 30 34 49 52 48 53 54 52 54 53 55 60 63 69 72 69 71 71 67 67 69 71 76 74 70 72 74 73 74 75
58 60 58 65 71 64 65 81 86 77 76 73 56 46 47 46 44 39 33 32 28 26 26 25 24 25 23 27 29 29 34 35 32 35 37 34 36 33 25 22 23 29 40 39 30 37 54 52 41 43 49 44 34 30 31 28 29 34 31 38 47 39 46 69 75 70 58 45 49 57 61 68 71 72 74 68 64 68 67 70 76 75 74 74 72 72 75 75
60 64 57 58 66 67 73 86 87 85 86 73 53 45 43 39 37 36 34 31 28 31 34 31 32 31 27 31 32 30 36 36 32 35 39 41 38 31 26 23 24 34 37 32 31 32 35 41 45 46 42 40 48 56 48 34 33 36 35 43 43 39 55 66 65 73 64 44 54 66 66 71 67 65 75 77 74 75 72 73 76 77 78 75 70 71 73 75
62 66 56 49 50 57 72 81 81 86 88 74 59 53 47 38 33 32 33 33 33 38 43 40 38 36 37 42 44 44 44 41 40 42 45 48 40 29 29 25 23 31 31 29 34 34 38 58 67 58 48 48 59 75 68 43 35 42 42 44 46 48 51 42 46 68 60 44 60 72 71 73 63 59 71 77 79 80 75 71 74 77 75 70 69 71 73 76
66 75 71 60 51 56 67 70 74 83 79 68 59 52 52 50 39 30 31 36 37 38 44 44 42 48 53 53 57 60 56 50 49 51 54 54 43 29 29 32 28 28 31 26 26 41 61 72 75 75 68 57 55 60 56 42 38 40 35 37 49 58 58 54 57 61 57 58 61 59 64 66 57 59 66 66 72 78 77 72 70 71 70 66 68 66 65 65
63 78 84 78 71 72 71 67 74 80 69 62 57 52 56 56 46 39 36 37 39 42 48 45 43 55 61 59 63 65 65 64 55 54 59 58 54 41 25 26 29 29 33 25 22 53 75 57 54 67 57 44 47 41 31 32 36 36 36 41 50 58 65 66 52 41 51 65 55 50 68 71 59 62 66 64 70 77 79 75 69 69 70 67 67 63 57 55
58 65 71 75 80 85 82 77 76 70 59 58 54 51 57 58 53 51 44 40 40 44 55 54 46 49 53 58 67 68 70 73 63 60 62 55 60 57 35 28 29 22 27 31 32 61 76 49 41 54 46 38 42 36 31 36 40 48 60 61 57 60 63 58 51 51 59 63 56 56 71 72 62 64 67 66 70 73 72 69 64 65 66 63 64 63 59 59
60 63 63 63 70 75 72 70 70 66 61 62 57 50 55 59 57 50 46 53 53 46 55 61 51 45 46 54 70 73 70 69 63 61 60 55 61 61 45 40 35 21 31 45 42 52 63 52 46 53 49 43 41 38 38 42 49 62 72 69 65 67 69 66 66 70 68 66 70 71 72 70 63 64 68 65 64 67 66 65 66 68 64 59 58 59 59 59
68 73 68 59 57 57 54 56 66 72 69 67 64 54 50 57 58 46 41 54 60 51 54 59 51 45 44 48 59 63 58 59 61 58 56 60 64 55 45 43 34 25 37 49 44 44 49 48 59 73 63 47 45 46 45 49 58 66 70 73 71 65 69 76 78 76 73 69 69 70 72 72 62 59 63 60 59 66 68 69 75 76 71 64 59 61 61 57
70 74 73 69 63 56 55 55 61 76 82 77 71 59 50 53 55 50 45 43 45 50 54 55 51 47 47 48 50 51 47 48 53 51 49 53 51 44 42 41 34 31 38 46 47 52 56 52 62 80 69 48 48 51 51 55 58 62 72 78 77 71 72 78 79 77 75 69 68 71 73 71 64 60 60 58 58 62 64 65 67 69 72 73 70 71 71 67
61 60 62 69 66 56 58 60 58 72 85 79 69 62 56 51 47 55 59 45 35 40 43 44 49 50 48 46 43 39 35 35 38 36 35 39 38 36 36 35 33 29 32 42 45 54 71 65 55 67 66 52 55 61 62 60 51 59 76 76 73 77 74 72 75 75 75 76 78 78 69 64 66 66 64 63 61 59 60 59 55 55 62 71 74 74 73 73
Wind_Speed
10 10 10 10 9 8 8 8 8 8 8 9 9 9 9 9 9 9 10 10 10 9 9 8 8 8 8 8 9 9 10 10 11 14 14 8 4 9 9 10 14 16 14 12 10 7 9 11 9 9 10 8 6 5 6 7 6 4 2 2 3 3 4 4 5 3 3 4 7 11 12 6 6 8 7 7 14 17 16 14 12 7 11 19 18 28 33 27
10 9 9 9 8 8 7 7 8 8 9 9 10 9 9 8 9 9 9 10 10 9 9 9 8 8 8 9 9 10 11 10 12 13 7 2 2 6 8 13 16 16 14 13 10 7 8 10 9 9 10 6 5 6 5 6 8 6 3 2 5 4 5 5 5 3 3 6 9 12 12 7 6 7 5 1 6 11 14 13 15 20 19 21 27 33 31 29
10 9 9 9 8 8 7 7 7 8 9 10 10 10 10 8 8 8 9 10 9 9 9 8 8 8 9 9 10 11 10 11 12 6 2 4 2 1 8 14 15 15 14 12 11 8 8 9 8 8 6 4 5 6 4 5 6 6 4 2 6 5 5 7 8 10 12 11 8 12 14 11 11 7 5 3 5 5 7 8 13 22 24 28 33 33 31 32
10 9 9 8 8 7 7 6 7 8 9 10 10 11 10 9 8 8 9 9 9 9 8 8 8 8 9 9 10 9 10 12 6 4 4 3 4 2 7 13 14 14 14 13 12 10 8 8 7 5 3 2 3 4 4 5 5 4 5 4 5 4 3 11 14 15 17 12 8 11 12 13 13 5 4 6 6 1 6 13 15 23 31 35 35 34 33 33
11 10 9 9 8 8 7 7 7 8 8 9 10 11 11 10 8 8 8 9 9 9 8 8 8 8 8 9 9 8 8 6 2 5 1 2 2 3 4 11 14 13 14 14 12 10 9 9 7 3 2 1 1 1 3 8 7 2 4 7 7 4 3 13 17 15 14 10 9 8 6 8 10 5 4 6 5 3 8 15 20 26 33 37 38 37 35 34
11 11 10 9 9 8 8 7 7 8 8 9 9 10 11 11 10 9 9 9 9 9 8 8 7 8 8 8 9 7 4 0 1 2 2 1 1 2 2 8 12 13 15 15 12 10 9 9 7 3 3 1 1 3 5 9 8 3 5 6 11 9 6 15 19 17 14 8 8 5 5 7 7 6 3 4 3 3 8 17 21 25 32 37 38 38 37 36
11 11 11 10 10 10 9 8 8 8 8 9 9 10 10 11 10 10 9 9 9 8 8 7 7 7 7 8 8 7 7 6 3 3 2 2 3 3 3 8 12 14 16 16 14 11 9 9 8 5 2 0 3 5 8 9 7 6 5 4 12 14 11 20 24 22 19 12 14 10 6 8 5 4 4 6 3 6 10 18 24 26 32 36 37 37 36 35
10 11 11 11 11 11 10 9 8 8 9 9 9 9 10 10 10 10 10 9 9 8 8 7 7 7 6 7 7 8 10 8 3 3 2 3 4 5 6 9 12 14 15 15 13 11 10 11 10 6 2 2 3 5 6 5 4 5 6 6 9 13 15 23 25 24 22 17 20 13 7 12 7 2 5 6 8 12 17 24 28 30 34 35 36 36 35 34
10 10 10 10 11 11 11 10 9 9 9 9 8 9 9 10 10 10 10 10 9 8 8 8 8 7 6 6 6 7 7 4 2 3 3 5 6 7 8 9 12 14 13 13 12 11 12 12 11 7 3 4 4 4 3 1 3 5 9 8 7 12 18 22 20 22 22 16 14 7 7 13 7 9 6 6 14 18 23 28 30 33 35 35 35 36 35 35
10 9 9 10 10 11 11 11 10 10 10 9 9 8 9 10 11 11 10 10 9 9 8 8 8 7 7 6 3 2 3 3 2 3 4 7 7 6 9 9 10 12 12 13 13 14 13 11 9 5 3 5 4 4 2 3 3 4 7 8 10 15 20 18 16 20 17 12 11 8 7 10 10 9 2 8 19 23 27 28 29 34 36 36 36 37 36 35
10 9 9 9 10 10 10 11 11 11 11 10 9 8 9 9 10 11 10 10 10 9 9 8 8 8 8 8 5 4 3 2 2 3 5 8 6 4 6 8 10 11 13 14 15 17 14 9 4 2 2 3 3 4 5 4 5 9 9 7 10 13 14 14 12 13 8 8 11 10 4 3 6 5 8 18 23 25 29 29 30 33 35 37 37 37 37 35
11 10 9 9 9 9 9 10 11 11 11 11 10 9 9 10 10 11 11 10 10 9 9 8 8 8 9 11 13 9 3 3 4 5 4 6 4 1 3 6 8 9 12 15 17 15 10 5 3 5 5 4 3 4 6 6 6 10 6 3 8 8 7 10 9 8 6 5 8 7 1 4 2 3 17 26 26 26 29 31 30 31 33 35 36 36 36 34
14 11 9 9 9 9 9 9 10 12 12 11 10 10 10 11 11 11 11 10 10 9 9 9 8 10 9 11 12 7 5 7 8 6 3 4 2 3 4 6 6 8 11 14 15 7 3 4 8 10 10 6 3 4 6 7 6 7 1 1 5 7 5 7 4 5 5 5 8 6 2 6 5 6 24 29 28 26 25 28 29 29 32 33 34 35 35 34
17 13 10 9 9 9 9 9 9 11 12 11 11 11 12 12 12 12 12 11 11 10 10 9 9 9 9 11 8 6 9 10 11 8 4 3 2 4 5 7 5 7 10 12 11 5 7 9 11 13 14 10 9 8 7 7 4 3 2 2 2 2 5 7 3 1 1 4 9 8 3 6 3 11 26 31 32 31 26 26 28 29 31 32 34 35 35 33
18 16 12 9 9 9 9 9 9 10 11 11 11 12 13 13 13 13 13 13 11 11 10 10 9 8 11 13 9 7 10 11 12 8 5 4 5 6 7 9 7 8 9 8 7 7 9 11 11 10 11 9 7 5 3 4 3 3 2 2 3 1 4 9 6 4 4 5 7 9 3 3 5 14 26 31 32 31 27 25 27 30 32 32 32 33 34 33
17 17 14 11 9 9 9 9 9 9 10 10 11 13 13 14 14 15 15 15 12 11 10 9 8 7 8 9 5 7 11 12 10 7 7 7 6 7 7 8 6 6 7 6 6 9 10 11 11 9 7 4 1 3 4 4 4 3 1 2 4 1 3 7 5 6 9 5 3 5 4 2 5 14 25 29 30 28 26 24 26 30 32 31 31 32 34 33
16 17 16 13 11 9 9 9 9 9 9 9 10 11 12 13 14 16 17 15 12 11 10 8 8 9 9 7 4 4 8 12 10 7 7 7 7 8 7 7 5 5 7 8 9 11 10 7 6 5 2 1 3 4 3 2 3 4 2 0 3 2 2 4 6 6 6 6 4 4 5 3 4 14 22 26 27 24 22 24 26 29 31 30 29 31 32 33
16 16 16 15 12 10 9 9 9 9 8 8 8 8 10 12 13 15 14 12 9 7 7 8 5 5 7 8 5 3 4 8 11 9 6 6 7 8 7 7 5 5 7 7 8 8 7 4 1 0 2 3 3 5 2 4 4 3 1 2 3 3 2 4 5 4 2 3 5 4 4 2 4 12 18 21 23 21 23 29 30 29 29 27 27 28 30 33
16 15 15 15 14 12 10 9 8 8 7 6 6 7 9 11 11 11 8 5 6 4 5 7 7 3 6 9 9 6 8 6 9 10 8 7 7 8 8 7 6 6 4 2 3 3 4 1 2 0 1 2 2 5 6 7 6 5 3 3 4 5 4 5 7 5 3 4 4 6 4 3 7 10 12 17 20 18 20 23 24 25 24 24 25 28 30 33
16 15 15 15 15 13 11 8 8 7 7 7 8 9 9 7 6 5 5 9 13 12 13 14 14 16 18 19 16 13 11 7 8 12 11 10 10 10 10 9 6 4 2 3 3 1 2 1 2 4 6 7 7 7 7 5 5 4 2 3 5 5 5 6 6 6 1 2 3 3 5 5 9 10 10 17 17 13 13 12 16 22 24 25 26 28 31 32
16 15 14 14 14 14 12 9 8 8 8 8 9 10 9 7 4 4 7 14 19 18 18 19 19 22 24 22 19 17 13 7 6 12 13 14 14 9 8 8 3 2 4 3 2 2 3 2 6 9 10 8 5 4 3 3 3 3 3 4 4 4 6 6 5 7 3 4 4 0 8 6 9 10 9 14 13 10 14 15 17 23 24 26 28 29 30 31
17 16 15 14 14 14 13 11 9 9 9 10 10 9 9 9 8 9 9 12 20 21 18 18 20 24 24 21 20 18 11 6 8 12 14 15 15 10 6 6 4 3 2 3 2 3 2 3 10 9 6 4 2 4 5 3 2 2 2 3 2 3 4 7 5 7 5 5 2 1 9 4 3 6 7 13 13 14 23 27 28 30 28 28 30 29 30 30
18 16 15 14 13 14 13 12 10 10 10 10 9 8 8 10 10 10 10 8 17 21 17 17 20 24 23 20 18 13 9 6 8 12 15 16 16 14 9 5 4 3 1 4 5 2 1 7 9 4 6 5 3 2 5 0 1 2 3 2 3 4 1 3 5 7 6 3 2 4 7 1 3 0 5 10 9 9 21 27 27 31 31 32 33 33 34 34
19 17 16 15 13 13 13 13 12 11 11 9 6 6 7 9 9 8 9 6 9 13 12 13 15 19 22 18 12 10 11 9 8 11 14 18 17 13 9 5 4 2 2 5 7 5 7 9 5 4 6 6 3 2 3 1 2 3 4 4 3 4 3 4 4 6 6 5 3 6 6 4 3 2 5 7 4 1 12 18 17 23 26 26 29 31 35 37
20 19 18 16 14 13 13 14 11 8 10 7 4 5 6 8 10 10 7 4 5 7 6 6 9 14 18 12 9 11 8 8 12 12 14 21 20 10 5 6 5 3 4 5 6 4 8 9 3 1 2 5 5 4 4 6 3 4 4 7 7 5 4 4 4 4 5 5 4 5 5 3 5 1 5 4 2 2 9 12 14 19 21 21 26 29 32 34
20 20 19 18 16 13 12 12 9 8 9 5 3 4 4 6 10 9 4 3 3 5 2 3 5 8 11 10 12 10 3 7 15 16 16 22 22 12 4 3 3 3 5 5 3 2 5 4 0 3 5 5 5 5 5 7 5 2 5 7 7 6 1 4 2 4 3 1 3 4 5 2 6 4 5 3 4 6 7 8 9 15 19 21 26 29 30 32
20 20 19 19 17 15 13 10 9 11 10 6 6 6 3 5 8 6 2 4 3 3 1 3 3 4 7 11 14 9 1 5 10 14 20 21 21 16 7 3 2 2 4 4 0 2 3 4 4 1 3 5 4 4 5 8 7 3 5 6 7 5 2 2 3 4 2 2 3 5 4 3 3 5 6 2 4 5 6 7 7 13 20 21 24 27 29 32
20 20 20 19 18 17 15 13 12 10 7 5 6 6 4 5 6 2 2 3 2 1 1 3 3 3 6 9 17 14 4 2 3 9 21 21 18 14 7 6 6 4 3 5 2 5 1 3 2 2 3 3 5 6 7 10 5 6 5 7 6 5 4 3 6 3 1 1 3 6 3 2 3 5 4 1 5 4 8 10 9 14 21 21 22 26 28 31
21 20 20 19 18 17 16 16 12 6 3 4 3 4 4 5 5 3 4 1 2 0 0 2 2 4 6 7 13 17 10 3 2 6 16 20 20 13 5 8 8 4 2 4 4 6 3 5 5 5 4 4 7 6 9 11 4 4 4 6 4 3 5 5 5 3 4 3 2 6 3 2 3 5 4 2 4 4 7 8 9 15 22 23 22 24 27 29
21 20 20 20 19 17 17 16 11 5 4 4 3 3 2 2 2 4 1 3 2 1 1 3 3 3 5 4 5 12 9 4 2 6 10 14 18 12 4 5 6 3 1 2 1 6 6 5 2 4 5 6 6 3 6 8 5 3 5 5 5 5 5 4 2 4 5 2 5 7 2 3 1 5 3 1 1 4 6 6 7 12 17 21 23 25 28 29
21 20 20 20 19 18 18 15 7 6 5 3 2 2 2 1 3 4 3 3 2 2 2 1 3 0 4 3 2 6 5 3 2 6 5 5 9 6 1 3 2 3 3 4 3 5 6 3 2 4 5 4 3 2 2 1 2 4 4 4 3 2 4 4 4 4 4 2 6 6 1 4 2 5 4 4 4 4 6 6 7 9 14 20 23 24 27 30
21 20 20 20 20 19 19 14 6 7 6 2 2 2 4 1 1 3 4 3 2 2 1 1 3 2 1 1 2 4 3 3 3 4 4 3 4 5 3 4 4 2 2 4 3 4 4 4 3 5 4 4 5 2 1 4 6 5 5 5 4 1 2 1 3 1 2 3 4 2 0 2 3 6 5 6 7 6 7 8 7 8 16 22 23 24 26 27
21 21 20 20 21 21 19 15 11 10 7 3 1 1 5 3 3 5 4 2 1 1 2 2 3 3 3 2 2 3 1 3 5 3 4 4 4 6 5 3 5 3 2 4 2 1 3 5 5 3 4 3 6 4 2 2 1 4 4 4 4 3 3 1 3 1 1 3 3 2 1 1 3 4 5 7 8 5 2 4 4 7 13 18 20 21 22 22
21 21 22 20 21 21 19 16 14 13 8 5 3 3 5 3 4 4 3 4 3 3 3 3 5 5 3 4 3 2 1 3 5 4 3 4 4 4 4 3 3 3 2 3 2 3 3 3 3 2 2 2 5 5 6 5 3 3 4 6 4 4 4 3 3 3 2 2 2 3 1 2 2 3 6 6 4 6 10 11 13 14 14 15 16 15 16 16
22 21 21 20 20 19 16 15 15 12 10 8 4 4 4 4 4 2 3 4 2 3 5 5 5 4 3 3 3 1 2 2 2 4 3 4 5 5 4 5 5 4 4 3 3 2 4 3 6 5 3 2 2 2 4 6 2 2 2 5 2 4 5 2 2 5 4 2 0 1 2 2 2 3 6 5 5 10 13 15 19 22 21 21 21 19 16 13
22 19 19 18 17 15 13 15 16 14 14 10 4 1 5 4 3 3 2 2 0 3 5 6 3 1 3 2 2 2 3 1 1 2 1 2 2 3 3 4 5 6 6 4 3 1 2 3 6 5 2 2 3 3 3 3 2 1 2 3 3 4 7 5 1 1 4 3 1 1 1 3 2 2 5 6 6 8 9 10 13 19 24 25 24 23 19 12
22 19 15 12 12 12 13 15 16 18 17 10 4 4 5 3 4 4 1 2 1 2 3 3 2 1 2 1 2 3 3 2 2 1 1 2 1 2 3 3 3 8 9 6 3 3 4 1 6 2 2 2 1 4 5 4 4 3 2 5 2 3 5 5 2 3 5 1 3 2 0 3 1 0 5 6 5 6 7 6 7 10 19 23 22 22 19 16
22 18 11 11 15 11 13 15 17 22 17 7 2 4 3 3 3 2 3 4 3 2 2 1 3 2 2 1 1 2 2 1 1 1 1 2 1 2 2 2 1 2 6 5 2 1 4 1 7 3 2 5 5 6 4 4 3 4 4 3 4 3 1 2 3 2 2 2 2 3 2 1 2 2 4 3 1 3 4 4 6 7 11 18 22 22 19 18
20 14 8 15 18 6 12 16 21 23 13 4 3 3 2 4 5 4 6 6 2 1 1 4 3 1 2 2 2 2 1 2 2 0 1 1 2 2 0 1 1 5 4 3 4 0 3 3 4 4 2 2 5 5 2 4 5 3 2 2 3 3 4 2 3 3 4 3 2 1 2 1 4 4 4 5 5 5 4 3 4 6 8 14 21 21 19 18
17 9 8 19 15 5 17 20 22 18 7 3 5 3 2 3 4 5 6 6 2 2 2 4 2 2 3 3 3 3 2 4 3 2 2 1 1 2 1 1 2 5 7 6 3 1 3 3 3 5 3 2 2 0 3 2 2 3 3 4 3 2 2 2 1 2 4 5 3 2 0 4 5 4 4 6 6 7 8 5 4 6 9 13 17 19 19 18
15 5 9 19 8 15 21 19 13 7 3 2 3 2 2 3 3 4 7 8 5 5 6 5 4 4 4 3 3 3 2 3 3 3 1 1 2 1 2 1 2 2 4 6 4 1 2 3 3 2 3 2 2 2 1 3 3 4 3 1 1 2 3 4 1 1 2 4 4 5 2 6 5 1 2 4 3 5 7 9 8 9 13 15 16 18 17 15
12 3 9 16 5 18 16 10 2 1 4 2 2 4 3 3 3 4 7 7 5 7 8 6 5 6 4 4 4 3 3 2 3 3 1 3 3 3 2 2 7 5 4 3 1 1 2 4 3 1 1 1 3 3 3 2 5 6 3 2 3 2 3 5 4 3 1 3 3 4 3 5 5 2 3 2 2 2 6 10 11 12 15 16 18 19 17 14
10 3 9 11 8 15 5 2 2 2 1 2 3 5 5 3 2 2 4 3 3 4 4 2 3 3 3 2 1 2 3 1 1 3 4 1 1 2 1 2 6 5 4 2 1 1 2 3 3 1 3 3 4 5 4 3 5 6 3 2 3 2 2 4 5 4 3 3 2 4 2 5 5 5 4 4 7 4 5 9 13 14 14 15 17 18 16 15
10 5 10 12 5 11 2 2 1 2 3 4 4 3 5 5 5 5 4 1 2 2 1 1 2 2 1 1 3 3 2 2 1 0 4 2 1 2 4 6 7 3 1 2 2 0 1 1 3 3 1 2 4 5 5 5 4 3 2 4 3 3 4 3 1 3 3 3 4 5 2 6 4 5 7 6 8 7 5 7 12 16 16 17 17 16 17 18
8 5 9 15 13 9 6 3 0 2 3 3 3 4 4 4 4 5 3 3 5 3 1 2 4 4 4 4 4 5 5 3 2 3 3 1 2 5 5 5 5 4 3 4 4 2 2 2 3 4 4 4 2 2 2 1 2 2 2 5 5 4 5 2 2 4 2 2 3 5 5 5 4 7 8 7 5 5 6 9 12 16 19 20 19 18 19 19
5 4 5 10 19 21 14 11 8 3 3 1 1 3 4 3 4 5 6 6 5 6 6 5 5 4 5 5 5 5 7 5 3 3 4 3 2 4 7 5 4 5 5 7 7 5 3 3 2 4 4 5 5 4 4 3 3 1 1 4 5 4 4 4 4 3 3 3 3 1 3 2 4 8 9 8 6 4 2 6 12 16 19 19 17 18 17 16
5 3 4 4 9 14 13 17 16 7 4 3 1 2 6 3 3 8 8 6 7 7 6 7 8 5 3 3 4 4 6 6 6 4 4 5 3 3 8 11 10 9 3 5 7 5 4 3 2 4 4 1 3 2 1 4 5 3 1 4 5 4 5 6 4 2 4 5 1 4 1 5 4 7 7 8 7 4 5 5 4 6 9 11 12 13 13 13
6 3 6 5 3 4 6 10 12 9 9 9 2 1 6 7 6 6 5 4 8 9 5 5 10 8 4 2 4 3 5 4 6 5 4 5 4 4 7 8 9 11 6 4 5 4 5 2 1 4 5 3 3 4 5 6 6 4 4 4 4 5 6 6 2 0 4 6 4 2 6 6 3 7 6 8 6 3 7 10 9 7 6 4 5 6 6 7
7 4 8 8 5 4 4 4 7 10 11 10 5 4 7 9 8 5 4 2 5 9 6 4 6 9 8 6 5 3 3 3 3 4 3 4 4 3 4 4 7 12 8 4 3 3 4 1 2 3 5 4 4 3 7 9 7 5 6 4 4 6 7 6 3 3 7 7 4 7 10 7 3 5 6 7 6 9 16 18 16 15 14 11 9 8 6 5
9 6 7 8 8 10 11 8 7 8 9 9 7 6 7 8 8 6 6 6 3 5 6 5 3 5 7 9 8 4 1 2 2 1 1 2 3 3 3 1 3 9 7 3 2 2 3 2 1 3 5 3 4 4 8 10 9 7 6 5 5 7 7 6 4 4 7 7 4 8 11 6 5 6 7 8 14 19 22 23 22 22 21 18 17 16 12 9
11 8 7 4 5 10 11 8 6 5 5 7 6 6 7 8 8 5 5 10 8 3 3 2 2 3 5 9 9 4 1 2 4 6 5 3 3 2 2 1 1 4 6 3 2 3 3 2 1 4 4 0 2 4 6 9 10 8 6 5 5 5 5 4 3 3 3 6 4 7 7 1 5 7 8 12 20 22 21 21 22 24 24 24 24 23 20 15
11 10 7 3 4 9 8 5 5 5 3 4 6 8 8 9 11 7 4 8 12 9 5 2 2 3 5 7 7 5 7 7 8 11 11 9 10 9 8 5 2 2 2 2 2 2 3 4 2 3 4 2 3 1 3 5 7 3 2 2 2 4 6 5 5 6 3 4 5 4 3 2 4 5 6 10 15 17 18 20 22 23 25 25 25 25 24 20
Wind_Direction
328 332 335 339 339 338 339 338 339 337 338 335 327 321 310 304 305 310 311 309 311 313 312 307 304 303 300 299 297 294 296 294 289 284 283 288 256 243 228 192 194 201 193 182 182 189 204 199 187 188 186 187 207 208 198 204 190 180 126 142 223 200 204 199 178 189 195 266 295 313 345 7 332 8 50 94 97 93 93 81 86 95 130 153 160 158 158 158
319 323 328 336 337 335 337 338 341 343 345 344 341 335 322 311 305 307 310 313 316 316 312 307 307 305 303 303 301 303 304 302 292 283 289 338 260 246 216 192 196 204 196 191 191 188 203 193 177 181 182 184 200 195 196 198 188 180 122 176 226 198 212 212 200 236 247 266 294 303 318 339 319 345 3 78 86 84 84 73 89 97 110 139 150 154 158 161
309 312 317 328 332 330 329 334 342 344 347 349 347 344 337 323 306 304 308 315 319 319 314 307 306 303 305 303 303 310 312 310 297 279 76 60 39 207 202 196 199 203 197 198 199 202 209 186 168 170 178 201 202 203 208 186 191 197 169 215 244 216 232 257 250 250 257 267 287 302 314 316 304 343 21 135 109 80 112 117 109 112 126 141 148 153 158 161
301 303 305 314 322 324 322 326 334 337 344 347 347 346 342 335 318 306 304 313 320 321 315 307 304 300 302 302 306 316 323 321 291 179 118 70 52 69 187 196 202 202 198 195 195 202 202 179 167 159 165 223 228 239 244 202 198 195 183 207 236 206 237 267 262 258 263 266 270 294 312 316 313 359 83 146 121 24 184 166 153 145 146 148 151 156 160 163
297 295 296 300 307 314 315 316 320 328 335 338 344 345 342 338 328 315 307 312 322 323 316 307 303 299 300 301 307 317 335 350 156 163 166 131 57 36 166 193 202 205 204 194 191 198 194 183 178 164 163 241 259 243 259 229 209 201 224 223 242 222 233 271 271 272 273 268 270 291 307 307 322 360 101 150 164 243 204 179 172 164 159 157 158 159 162 166
297 291 288 290 295 300 303 306 310 317 324 331 340 342 342 338 333 327 317 316 322 322 312 307 304 299 299 299 306 317 323 312 192 291 266 196 297 314 168 190 195 204 204 191 189 194 192 188 186 183 157 187 203 188 247 242 209 224 267 246 258 247 234 272 276 278 277 270 266 264 273 291 327 339 43 115 189 217 194 180 171 166 163 162 161 161 165 169
301 293 285 285 287 290 293 297 301 308 315 324 333 338 341 339 339 337 330 325 323 320 310 307 306 296 297 298 303 313 288 264 302 341 278 275 293 268 224 198 192 201 197 186 188 189 191 186 186 188 138 198 211 209 247 249 209 210 263 262 266 263 253 269 275 275 271 260 260 261 273 280 277 294 31 68 127 164 172 171 163 158 159 160 160 163 168 172
308 299 290 284 283 285 287 288 291 297 304 314 324 331 335 337 341 341 341 338 327 321 311 308 305 294 294 296 305 314 291 271 298 346 309 308 290 264 236 207 195 200 195 184 184 183 188 185 188 185 142 241 207 212 242 254 229 207 241 254 264 270 266 272 276 274 270 258 261 263 251 261 250 114 67 82 128 149 156 159 156 153 157 161 162 166 171 174
317 306 298 289 283 282 282 283 285 288 294 303 312 321 330 335 339 340 341 341 334 323 315 310 302 296 291 289 308 316 288 268 309 314 306 316 296 259 237 222 203 200 192 181 180 184 191 193 198 193 193 259 242 248 235 202 256 209 226 252 268 274 274 277 274 270 269 257 255 239 229 254 202 111 66 116 137 146 149 151 153 154 159 163 165 170 173 175
331 316 307 298 290 284 280 279 281 284 287 292 300 312 324 330 333 335 334 338 337 327 321 312 302 298 287 284 296 299 271 266 309 309 308 320 304 249 231 224 208 200 187 180 182 184 190 191 194 196 247 275 253 253 231 176 243 258 254 269 273 275 279 275 270 272 264 244 237 203 224 251 182 144 78 147 149 150 147 148 156 158 161 165 168 174 176 177
342 330 318 308 301 292 282 276 278 281 282 285 291 304 316 321 326 331 331 332 333 333 328 313 306 298 286 285 251 221 279 275 291 314 310 321 316 261 237 218 209 199 184 182 183 184 186 182 185 223 272 296 287 290 292 246 262 293 297 299 282 284 285 267 266 271 245 227 226 196 224 269 172 165 160 161 160 157 152 152 161 163 164 168 172 176 179 179
349 340 329 318 310 302 289 278 275 275 278 281 285 298 309 311 318 327 332 330 327 329 327 318 308 297 293 283 258 241 272 266 284 300 298 320 319 253 231 211 207 192 183 183 181 184 187 194 263 272 275 306 322 311 304 295 295 295 301 304 296 331 312 261 251 236 194 198 201 159 335 299 272 194 161 162 162 160 156 155 163 167 169 172 175 179 181 181
356 346 336 328 318 310 300 285 276 272 273 277 282 292 299 303 313 321 327 328 323 319 319 318 307 302 297 277 260 240 241 253 276 275 260 311 281 182 184 186 197 191 188 185 175 179 220 257 277 278 285 286 259 268 293 314 318 301 312 150 303 354 324 266 235 210 183 189 180 139 294 272 288 183 159 162 164 160 159 160 165 170 173 175 179 182 182 183
2 353 341 333 325 317 307 293 282 273 271 273 279 286 289 296 305 312 320 323 322 313 306 309 307 305 286 267 264 243 242 252 267 255 218 245 189 156 155 149 165 179 183 185 182 222 259 271 283 285 288 272 249 267 300 332 343 319 347 57 343 352 292 292 303 244 270 238 183 152 238 249 237 172 163 166 168 163 165 168 170 172 176 179 183 185 184 186
4 359 348 336 330 324 315 303 291 278 272 272 273 277 281 289 299 308 312 312 315 305 296 299 298 304 292 277 270 249 247 249 255 249 213 213 177 151 138 129 134 157 177 198 213 245 255 270 278 272 277 267 252 271 329 348 356 3 359 329 327 178 270 299 296 211 211 251 183 156 222 239 174 178 171 170 171 167 166 172 174 175 178 182 186 186 185 187
359 0 354 341 332 329 324 311 298 287 277 271 268 271 277 286 296 301 302 303 304 293 290 290 282 301 303 282 255 230 239 242 247 246 220 206 185 163 142 139 145 165 198 224 241 261 268 273 268 255 257 253 164 84 41 1 345 359 71 246 281 288 299 310 310 232 205 215 205 178 198 181 181 189 178 172 173 170 165 171 176 179 182 185 187 187 187 187
352 356 356 349 335 329 326 316 305 296 286 279 277 276 280 285 290 294 294 293 286 280 283 276 277 295 276 253 258 247 243 241 239 241 223 199 185 178 170 186 199 211 236 250 256 268 272 259 247 248 270 31 84 88 58 346 312 316 10 290 261 255 283 301 308 284 211 189 216 223 201 173 184 187 180 176 173 168 165 170 178 183 185 187 188 188 189 188
345 348 351 351 341 329 325 320 311 304 298 295 290 287 287 288 291 292 291 283 269 274 285 260 252 301 264 243 260 331 326 257 236 238 229 199 182 184 196 213 235 267 269 266 256 252 245 232 182 185 4 15 49 89 123 228 212 233 305 340 299 284 254 264 275 287 282 224 192 190 214 175 164 180 179 176 170 167 172 176 181 185 186 189 192 190 189 188
339 341 343 347 346 334 323 319 316 311 307 303 297 298 295 295 297 293 287 262 234 248 282 239 209 251 277 265 264 294 332 299 241 232 215 193 184 191 211 228 254 271 271 253 240 216 195 201 40 19 293 288 196 143 178 209 182 177 202 207 266 283 264 257 255 257 271 250 197 179 189 137 158 176 170 169 169 174 184 183 179 179 183 190 194 193 190 189
332 334 335 338 342 339 326 315 314 309 302 300 300 305 305 308 311 293 279 268 265 273 277 260 248 260 272 275 277 285 302 299 243 227 206 189 191 198 214 228 244 249 219 182 208 236 142 176 253 223 220 219 211 193 195 196 163 166 199 223 252 268 272 273 268 287 306 175 252 185 138 124 159 173 166 164 167 176 188 187 176 176 183 192 196 195 192 191
326 327 329 330 334 337 330 312 302 296 294 292 295 307 318 328 323 298 298 287 284 282 272 267 262 262 269 272 275 284 295 301 248 225 210 202 201 203 215 213 186 220 243 187 169 352 80 165 235 225 219 215 195 174 196 211 168 181 210 225 257 248 261 273 272 308 8 111 311 72 129 139 160 163 162 158 164 181 179 177 182 183 186 193 197 197 193 191
323 322 323 324 325 330 328 315 296 284 288 288 296 321 340 346 328 297 298 293 291 289 275 267 260 259 265 263 266 277 282 278 252 231 217 207 203 203 198 174 154 202 244 110 101 336 39 238 244 230 208 193 158 136 156 208 183 158 181 175 255 256 279 296 303 323 0 94 320 90 126 142 175 170 175 171 179 192 185 184 185 184 186 193 198 196 191 189
318 318 318 317 318 321 323 319 299 281 284 286 303 341 356 356 346 304 285 278 291 294 277 255 248 251 255 254 260 260 233 227 247 239 221 205 200 202 190 156 167 194 132 130 157 177 247 248 237 192 138 158 230 170 136 144 20 161 188 168 257 275 316 296 311 331 348 56 117 110 104 38 334 4 223 210 204 200 193 192 188 185 187 193 195 193 189 188
315 315 313 312 312 313 316 315 302 284 280 284 309 349 358 357 355 318 290 274 286 293 277 255 246 244 244 246 248 226 213 221 235 237 222 204 193 195 200 173 149 193 211 168 154 171 240 249 226 117 125 158 214 251 158 194 297 260 212 170 204 260 228 225 296 332 342 7 60 79 60 338 356 112 223 245 270 239 187 191 195 192 192 196 198 195 191 189
314 312 310 309 306 306 310 310 306 288 279 284 309 330 355 1 347 323 307 308 286 281 280 258 240 235 231 227 220 211 215 235 232 228 218 207 194 179 198 184 156 224 219 156 137 190 253 262 244 205 181 152 173 230 201 180 218 293 242 193 191 208 233 264 335 18 25 2 349 56 67 305 320 245 223 243 245 179 176 191 203 197 195 202 202 198 194 193
315 311 308 307 303 301 304 306 308 296 287 287 293 315 348 347 333 321 318 15 309 271 260 207 213 222 212 204 208 206 216 255 241 230 217 212 203 183 174 179 159 218 195 153 140 204 258 285 114 223 224 159 164 236 226 171 153 291 243 197 170 149 179 293 352 70 85 296 309 46 111 225 312 288 250 252 207 198 188 202 208 197 200 206 204 199 195 196
315 313 309 304 302 301 299 297 297 297 297 289 279 293 311 306 317 321 350 24 321 258 168 168 175 180 189 194 190 171 112 253 235 226 217 213 206 195 196 206 164 202 169 120 3 234 248 316 24 108 198 148 161 233 219 157 132 235 228 145 126 132 165 234 94 98 177 219 321 9 96 142 309 261 256 258 175 203 213 210 211 203 205 208 206 201 197 198
314 313 309 302 301 299 295 290 288 296 299 280 271 265 263 299 314 334 70 25 299 244 142 181 176 175 190 193 188 183 196 194 152 218 216 210 203 193 200 214 178 190 172 123 219 256 236 286 292 129 130 150 192 216 185 150 147 242 211 128 130 163 158 125 98 91 353 59 322 327 40 113 274 268 281 75 143 201 236 220 212 208 207 208 207 203 200 200
312 311 307 301 297 294 290 284 283 290 284 262 239 222 239 292 322 50 90 337 279 285 69 178 187 213 197 180 194 204 216 213 122 204 206 202 202 196 209 215 174 166 218 133 196 252 257 245 225 146 148 207 220 215 167 158 192 231 157 104 75 84 90 85 99 101 30 52 240 288 343 116 272 289 310 22 114 183 240 239 224 213 206 203 204 203 202 201
308 307 304 298 294 292 285 278 272 260 264 264 222 195 208 262 9 61 133 261 267 232 129 168 214 213 172 148 204 216 223 244 179 158 177 190 198 202 204 197 160 129 291 12 212 252 289 288 235 160 190 212 209 192 157 171 191 138 96 70 56 41 47 53 57 84 64 7 251 261 268 121 259 288 271 248 143 193 235 257 236 217 206 199 200 201 201 201
306 303 300 295 292 289 280 275 260 218 234 266 248 188 146 120 68 99 211 258 285 270 67 155 253 198 150 158 234 219 211 239 183 130 148 178 189 200 134 146 145 78 6 336 296 294 327 324 254 244 225 182 137 130 125 42 53 91 77 76 98 8 20 32 352 46 88 258 258 256 260 105 163 265 267 255 263 243 224 229 226 204 190 191 194 196 200 202
306 300 296 291 287 280 269 266 246 208 226 298 314 191 150 120 55 185 239 327 333 270 11 297 293 357 210 217 266 231 191 199 214 142 142 151 167 191 190 179 172 94 326 272 269 326 315 248 273 304 254 159 118 126 312 3 32 86 85 77 100 31 17 14 306 8 154 235 249 244 88 101 210 245 276 284 291 282 232 226 235 196 179 185 189 192 197 200
306 299 294 285 280 274 264 261 247 228 243 274 260 129 98 103 217 221 245 301 260 278 328 285 311 333 276 247 246 236 189 202 218 191 152 138 161 201 225 201 153 145 226 211 211 298 290 295 319 328 278 194 143 142 202 268 76 135 130 114 127 104 82 240 263 300 237 239 267 285 248 249 266 280 303 304 304 306 216 181 182 165 170 176 176 180 186 192
306 301 294 284 276 270 263 260 246 233 235 213 178 82 93 146 233 230 234 249 258 306 336 320 321 316 268 238 242 197 152 239 206 170 150 128 147 206 243 241 170 155 161 149 181 184 164 305 281 197 266 215 167 168 170 159 144 185 165 131 141 149 143 204 219 187 210 228 283 305 259 170 193 291 314 316 334 46 75 96 109 113 127 139 139 148 162 173
310 304 296 287 278 269 261 252 238 222 205 182 128 84 146 204 242 219 223 240 272 324 325 323 329 330 296 259 280 79 114 243 187 135 158 155 166 193 206 219 199 153 127 157 223 161 137 240 251 254 269 175 192 229 144 116 101 250 148 107 144 185 150 132 181 172 168 151 271 263 217 203 208 282 325 347 27 54 68 84 96 101 109 115 111 109 114 123
315 309 299 293 285 275 258 239 226 208 189 165 112 150 201 216 216 192 222 229 276 339 335 337 359 6 308 288 312 3 64 66 56 90 191 190 183 197 205 225 200 170 155 162 210 179 119 246 276 315 327 158 187 205 117 100 170 215 129 157 214 174 122 107 139 72 76 108 253 249 222 308 338 337 337 358 24 32 41 61 83 102 112 111 107 105 104 108
322 319 313 317 318 288 244 222 208 193 181 156 132 212 214 222 210 201 283 359 9 7 32 9 329 239 268 294 302 317 9 24 1 29 235 239 308 282 272 269 193 188 192 165 177 206 144 235 288 339 67 324 316 114 81 66 120 121 189 198 169 77 91 102 108 21 48 138 270 334 285 298 16 81 321 350 26 25 17 28 51 95 115 113 111 115 123 138
329 329 331 350 341 297 224 203 191 179 168 145 166 227 214 223 224 209 344 350 347 8 60 204 248 226 217 254 270 290 357 31 352 6 265 252 230 233 264 270 167 194 211 174 150 228 125 140 289 285 173 305 352 74 57 356 62 120 191 184 96 99 147 90 119 125 103 181 276 343 337 251 172 211 285 311 93 70 36 44 59 74 106 114 117 122 131 142
334 334 346 348 338 292 188 180 177 168 154 135 199 231 220 231 266 288 316 324 287 247 266 220 229 267 241 210 185 202 167 170 172 69 259 270 219 208 107 270 312 9 18 127 147 185 97 132 266 279 233 305 5 53 47 321 339 25 42 13 47 126 157 151 141 144 144 166 218 338 4 276 223 219 230 243 220 157 142 142 111 106 114 119 124 130 137 146
341 343 0 350 347 145 156 162 164 159 147 171 190 215 246 242 279 279 287 300 257 223 249 217 218 267 252 232 196 182 162 170 160 138 190 205 189 233 342 62 301 350 29 68 106 87 62 114 211 281 316 30 21 55 158 182 307 9 33 9 357 44 110 136 107 94 130 141 167 154 74 272 250 208 210 245 236 186 168 163 145 132 125 123 129 135 141 149
352 359 7 358 21 139 145 150 154 149 146 176 179 214 264 251 268 277 277 279 258 244 245 229 235 245 239 255 235 189 150 166 149 117 186 221 134 203 269 141 117 330 21 49 44 51 90 128 168 299 6 77 216 261 173 166 155 128 106 66 145 147 122 123 122 308 107 126 161 152 159 263 262 206 249 256 235 218 185 154 147 148 139 137 138 138 139 145
1 31 10 5 110 151 145 146 153 71 144 168 208 201 228 243 244 279 281 275 251 238 238 233 237 233 221 239 228 165 137 163 168 144 172 237 182 168 236 134 97 74 76 78 332 236 130 102 103 72 352 169 254 323 20 88 113 105 92 103 132 129 102 122 170 227 99 103 145 117 117 258 272 348 320 320 71 242 199 159 147 150 150 147 144 141 141 143
355 6 17 23 153 169 142 64 345 8 166 283 274 218 230 239 237 287 278 265 250 241 242 235 233 210 188 226 213 106 101 96 196 168 153 226 264 137 151 96 84 72 72 96 263 275 90 86 86 2 312 332 324 332 3 42 70 69 33 34 71 50 98 141 172 177 127 130 142 89 81 260 287 356 5 52 77 91 168 160 148 147 152 150 144 145 150 152
349 356 25 32 154 193 200 33 21 328 293 309 323 276 253 235 233 249 252 312 342 281 281 332 320 339 10 93 69 50 62 86 1 21 129 139 350 40 64 64 72 67 42 128 176 250 35 101 103 97 30 8 350 338 348 2 30 63 354 337 0 39 70 100 111 77 94 166 149 117 171 253 286 6 20 42 70 78 96 138 148 148 150 150 148 149 154 157
356 15 28 35 60 94 87 62 310 280 292 309 311 296 279 256 256 246 209 72 33 13 26 337 319 335 2 55 59 17 20 74 63 5 46 83 10 14 20 42 71 80 108 128 130 117 108 114 110 126 156 172 184 250 251 294 357 19 347 347 0 30 50 73 78 69 102 175 108 123 185 242 314 6 10 8 37 67 91 124 142 148 150 153 153 153 156 157
19 25 3 25 47 55 51 32 20 347 294 299 277 328 341 306 330 19 69 74 33 33 51 12 334 351 17 39 64 27 9 21 45 44 29 9 353 8 13 28 47 49 93 96 75 84 101 67 84 120 142 175 180 202 208 150 86 72 331 353 354 0 46 83 88 99 163 136 60 248 181 127 355 353 355 342 345 9 76 127 143 151 154 157 157 155 155 153
52 23 342 351 28 32 29 20 14 353 327 17 101 353 358 339 349 23 42 46 19 26 51 30 17 29 11 24 88 55 356 354 24 40 13 349 301 328 27 56 52 27 38 65 48 73 92 46 73 93 66 102 163 138 121 100 97 113 76 7 350 354 52 82 96 140 137 110 67 286 82 85 356 335 343 329 326 342 1 23 88 139 149 156 160 157 154 151
54 27 8 23 24 8 24 16 5 357 1 14 42 25 18 27 33 21 8 20 24 23 40 36 21 22 7 30 114 68 360 7 22 9 345 356 339 331 13 42 32 17 29 55 39 85 109 76 188 105 66 50 78 97 105 94 81 71 56 34 17 31 67 93 108 10 107 123 174 179 87 79 342 326 333 324 326 18 40 36 45 53 55 84 117 127 137 143
48 47 18 37 55 15 19 29 25 27 14 3 15 29 26 31 35 20 350 8 24 15 35 70 16 12 22 36 88 85 21 43 40 359 345 351 336 346 16 4 353 5 24 56 33 73 111 121 229 123 89 61 49 95 114 102 85 58 41 39 63 71 74 79 64 55 87 102 130 109 89 73 2 326 323 335 11 58 62 54 52 49 48 56 64 63 72 77
40 36 5 29 45 17 14 25 45 49 20 1 10 14 16 25 25 20 22 41 43 355 26 82 59 29 42 44 66 92 83 113 114 324 345 12 349 13 45 12 322 347 3 37 12 24 98 148 222 95 84 37 18 60 98 101 101 86 50 24 55 72 59 46 36 46 79 91 101 93 85 59 3 346 346 19 51 58 56 50 45 45 48 56 59 54 57 67
44 38 12 28 31 6 6 11 34 72 35 2 0 357 3 10 6 12 36 41 53 47 26 91 114 48 47 47 57 65 267 202 216 255 252 235 271 282 282 276 10 351 351 8 353 3 73 113 36 64 91 286 358 69 100 98 91 78 43 6 18 60 69 55 32 23 98 133 114 78 83 58 318 338 1 40 55 55 50 44 43 45 49 53 55 53 55 63
45 44 34 70 54 10 3 2 24 58 55 0 356 358 360 359 2 23 66 40 38 43 37 58 109 56 38 38 33 348 314 298 278 286 289 273 266 265 266 282 315 334 323 357 24 28 79 114 110 84 116 234 301 72 119 88 75 53 324 328 47 96 110 96 49 22 37 118 118 103 130 212 300 346 24 46 52 52 50 46 45 46 50 53 55 56 58 58